Lake Jordan Weather Center

Moon Phase Calendar



Lake Jordan Water Level
Online Cameras

 


      

Current Conditions in Holtville
4/18/2024 9:04:08 PM

69°F
Feels Like 70
Clouds
Humidity
83%
Pressure
30.06"
Wind
0.9 mph (E)
Dew Point
64°F
UV Index
0/10 (Low)
Visibility
6 mi

Hourly Forecast

Date & Time Thu, Apr 18
9:00 PM
Thu, Apr 18
10:00 PM
Thu, Apr 18
11:00 PM
Fri, Apr 19
12:00 AM
Fri, Apr 19
1:00 AM
Fri, Apr 19
2:00 AM
Fri, Apr 19
3:00 AM
Fri, Apr 19
4:00 AM
Fri, Apr 19
5:00 AM
Fri, Apr 19
6:00 AM
Fri, Apr 19
7:00 AM
Fri, Apr 19
8:00 AM
Fri, Apr 19
9:00 AM
Fri, Apr 19
10:00 AM
Fri, Apr 19
11:00 AM
Fri, Apr 19
12:00 PM
Fri, Apr 19
1:00 PM
Fri, Apr 19
2:00 PM
Fri, Apr 19
3:00 PM
Fri, Apr 19
4:00 PM
Fri, Apr 19
5:00 PM
Fri, Apr 19
6:00 PM
Fri, Apr 19
7:00 PM
Fri, Apr 19
8:00 PM
Fri, Apr 19
9:00 PM
Fri, Apr 19
10:00 PM
Fri, Apr 19
11:00 PM
Sat, Apr 20
12:00 AM
Sat, Apr 20
1:00 AM
Sat, Apr 20
2:00 AM
Sat, Apr 20
3:00 AM
Sat, Apr 20
4:00 AM
Sat, Apr 20
5:00 AM
Sat, Apr 20
6:00 AM
Sat, Apr 20
7:00 AM
Sat, Apr 20
8:00 AM
Sat, Apr 20
9:00 AM
Sat, Apr 20
10:00 AM
Sat, Apr 20
11:00 AM
Sat, Apr 20
12:00 PM
Sat, Apr 20
1:00 PM
Sat, Apr 20
2:00 PM
Sat, Apr 20
3:00 PM
Sat, Apr 20
4:00 PM
Sat, Apr 20
5:00 PM
Sat, Apr 20
6:00 PM
Sat, Apr 20
7:00 PM
Sat, Apr 20
8:00 PM
Condition
Clouds

Clouds

Rain

Clouds

Rain

Clouds

Clouds

Clouds

Clouds

Clouds

Clouds

Clouds

Clouds

Rain

Rain

Rain

Rain

Rain

Rain

Rain

Rain

Rain

Clouds

Rain

Clouds

Clouds

Clouds

Clouds

Clouds

Clouds

Clouds

Clouds

Clouds

Clouds

Clouds

Clouds

Clouds

Clouds

Clouds

Clouds

Rain

Rain

Clouds

Clouds

Clouds

Clouds

Clouds

Clouds
Temperature 69°F70°F69°F69°F68°F66°F65°F65°F64°F64°F66°F69°F74°F77°F79°F80°F81°F81°F79°F78°F77°F76°F72°F70°F69°F69°F67°F66°F65°F64°F64°F63°F62°F61°F61°F63°F64°F65°F69°F75°F77°F78°F77°F76°F73°F69°F66°F66°F
Feels Like 70°F70°F70°F69°F69°F67°F66°F65°F65°F65°F66°F70°F74°F78°F79°F83°F84°F84°F79°F79°F78°F77°F74°F71°F70°F70°F68°F67°F66°F65°F64°F63°F62°F61°F62°F63°F64°F65°F69°F75°F77°F78°F77°F76°F73°F70°F66°F66°F
Cloudiness 100%100%100%100%100%100%100%66%53%53%57%100%75%65%64%62%61%68%78%86%89%94%92%56%78%85%88%91%93%84%92%95%96%97%97%97%98%99%99%99%100%100%100%100%100%100%100%100%
Visibility 6 mi6 mi6 mi6 mi6 mi6 mi6 mi6 mi6 mi6 mi6 mi6 mi6 mi6 mi6 mi6 mi6 mi6 mi6 mi6 mi6 mi6 mi6 mi6 mi6 mi6 mi6 mi6 mi6 mi6 mi6 mi6 mi6 mi6 mi6 mi6 mi6 mi6 mi6 mi6 mi6 mi6 mi6 mi6 mi6 mi6 mi6 mi6 mi
Precipitation 0%0%20%0%20%5%0%0%0%0%0%0%2%26%66%87%96%99%100%100%100%100%80%22%18%0%0%0%0%0%0%0%0%0%0%0%0%0%0%0%32%95%90%90%58%44%53%0%
Humidity 83%84%85%88%89%94%97%97%98%98%97%90%81%73%70%67%64%66%74%80%80%85%90%93%93%94%96%98%99%99%99%98%97%96%94%90%89%84%72%61%59%59%58%61%67%74%83%79%
Dew Point 64°F65°F65°F65°F65°F64°F64°F64°F63°F63°F64°F66°F67°F68°F68°F68°F68°F68°F70°F71°F70°F71°F69°F67°F67°F67°F66°F65°F64°F63°F63°F62°F61°F59°F59°F60°F60°F60°F60°F60°F61°F61°F61°F61°F61°F60°F60°F59°F
Pressure 30.06"30.06"30.06"30.03"30"30"30"30"30.03"30.03"30.06"30.06"30.06"30.06"30.03"30.03"30"30"29.97"29.97"29.97"29.97"30"30"30"30.03"30.03"30.03"30.03"30.03"30.03"30.03"30.06"30.09"30.09"30.12"30.12"30.12"30.12"30.09"30.09"30.06"30.06"30.03"30.03"30.06"30"30.03"
Wind Speed 0.9 mph1.8 mph3.6 mph4.6 mph5.3 mph3 mph4 mph3.5 mph3.8 mph3.3 mph3.5 mph5.5 mph5.5 mph5.7 mph5.6 mph5.5 mph5 mph3.9 mph2.6 mph2.8 mph4.5 mph5.3 mph5.1 mph4.7 mph4.9 mph5.2 mph5.7 mph4.9 mph3.1 mph3.6 mph4.7 mph6 mph6.6 mph6.8 mph7.4 mph7.1 mph6.5 mph7.7 mph7.2 mph6.1 mph5.6 mph3.8 mph5 mph7.6 mph9.2 mph9.7 mph5.9 mph6.6 mph
Wind
Direction
97°
E
237°
WSW
265°
W
165°
SSE
232°
SW
228°
SW
237°
WSW
222°
SW
239°
WSW
241°
WSW
240°
WSW
251°
WSW
262°
W
263°
W
267°
W
263°
W
260°
W
254°
WSW
274°
W
316°
NW
313°
NW
332°
NNW
339°
NNW
341°
NNW
353°
N
343°
NNW
350°
N
350°
N
350°
N
349°
N
351°
N
347°
NNW
355°
N
354°
N

N
14°
NNE

N

N

N
358°
N
338°
NNW
297°
WNW
292°
WNW
310°
NW
324°
NW
301°
WNW
28°
NNE
347°
NNW

Daily Forecast

Date High Low Precip. Humidity
Today
Apr 18

Rain
85 °F
63 °F
54%
57%
Friday
Apr 19

Rain
81 °F
64 °F
100%
67%
Saturday
Apr 20

Rain
78 °F
61 °F
95%
61%
Sunday
Apr 21

Rain
60 °F
45 °F
100%
93%
Monday
Apr 22

Clear
70 °F
43 °F
0%
35%
Tuesday
Apr 23

Clouds
74 °F
47 °F
0%
42%
Wednesday
Apr 24

Clouds
77 °F
56 °F
0%
48%
Thursday
Apr 25

Clouds
76 °F
47 °F
0%
35%
Friday
Apr 26

Clouds
82 °F
54 °F
0%
48%
Saturday
Apr 27

Rain
87 °F
61 °F
100%
54%
Sunday
Apr 28

Rain
88 °F
66 °F
54%
47%
Monday
Apr 29

Clouds
88 °F
65 °F
0%
40%
Tuesday
Apr 30

Rain
88 °F
67 °F
58%
47%
Wednesday
May 1

Rain
88 °F
66 °F
100%
48%
Thursday
May 2

Rain
81 °F
66 °F
100%
66%
Friday
May 3

Rain
88 °F
66 °F
100%
45%

Temperature 8-14 Day Outlook



Precipitation 8-14 Day Outlook




Quick Links
Lake Jordan News
Lake Jordan Photos
Lake Jordan Videos




About Us
Contact Us
Site Map
Search Site
Advertise With Us
   
www.LakeJordan.info
THE LAKE JORDAN WEBSITE

Copyright 2024, Lakes Online
Privacy    |    Legal